EW6196 Weather Reports


time (UTC)temp
C
wind
direction
speed
KPH
gust
KPH
rain 1hr
cm
rain 24hr
cm
rain mn
cm
humidity
%
barometer
mb
20260906173836 25 132 0.0 3.2 0.00 0.00 0.00 74 1017.7
20260906170836 25 127 0.0 3.2 0.00 0.00 0.00 74 1017.8
20260906163836 24 124 0.0 3.2 0.00 0.00 0.00 76 1018.2
20260906160830 23 127 0.0 4.8 0.00 0.00 0.00 78 1018.3
20260906153830 23 131 0.0 3.2 0.00 0.00 0.00 81 1018.2
20260906150831 22 135 0.0 4.8 0.00 0.00 0.00 84 1018.6
20260906150551 21 138 0.0 6.4 0.00 0.00 0.00 84 1018.3
20260906140823 21 209 0.0 3.2 0.00 0.00 0.00 85 1018.4
20260906133824 21 127 0.0 14.5 0.00 0.00 0.00 86 1018.1
20260906130822 21 124 0.0 11.3 0.00 0.00 0.00 87 1017.8
20260906125158 21 157 0.0 1.6 0.00 0.00 0.00 87 1017.8
20260906120822 21 164 0.0 3.2 0.00 0.00 0.00 87 1017.6
20260906113822 21 165 0.0 0.0 0.00 0.00 0.00 86 1017.5
20260906110822 21 177 0.0 3.2 0.00 0.00 0.00 86 1017.0
20260906103820 21 177 0.0 3.2 0.00 0.00 0.00 86 1017.1
20260906100819 21 178 0.0 6.4 0.00 0.00 0.00 85 1016.9
20260906093819 22 126 0.0 3.2 0.00 0.00 0.00 85 1016.2
20260906090813 22 107 0.0 4.8 0.00 0.00 0.00 85 1016.3
20260906083811 22 71 0.0 6.4 0.00 0.00 0.00 84 1016.2
20260906080811 22 57 0.0 1.6 0.00 0.00 0.00 83 1016.1
20260906073810 22 55 0.0 0.0 0.00 0.00 0.00 83 1016.4
20260906072208 23 55 0.0 0.0 0.00 0.00 0.00 82 1016.6
20260906063808 23 54 0.0 1.6 0.00 0.00 0.00 81 1016.5
20260906060809 23 53 0.0 1.6 0.00 0.00 0.00 81 1016.8
20260906053809 23 66 0.0 1.6 0.00 0.00 0.00 80 1016.6
20260906050809 23 99 0.0 0.0 0.00 0.00 0.00 80 1016.7
20260906043809 23 99 0.0 0.0 0.00 0.00 0.00 80 1016.8
20260906040809 23 99 0.0 0.0 0.00 0.00 0.00 79 1016.8
20260906033806 24 99 0.0 0.0 0.00 0.00 0.00 77 1016.9
20260906030806 25 100 0.0 0.0 0.00 0.00 0.00 75 1017.0
20260906023806 25 100 0.0 1.6 0.00 0.00 0.00 74 1016.8
20260906022158 25 99 0.0 1.6 0.00 0.00 0.00 73 1016.2
20260906013803 25 249 0.0 3.2 0.00 0.00 0.00 72 1015.3
20260906010803 26 242 0.0 6.4 0.00 0.00 0.00 72 1014.9
20260906003804 27 125 0.0 3.2 0.00 0.00 0.00 66 1014.3
20260906000800 28 120 0.0 3.2 0.00 0.00 0.00 62 1014.3
20260905235132 29 140 0.0 3.2 0.00 0.00 0.00 56 1013.9
20260905230755 31 101 0.0 3.2 0.00 0.00 0.00 55 1013.7
20260905223755 31 81 0.0 3.2 0.00 0.00 0.00 55 1013.7
20260905220750 31 123 0.0 3.2 0.00 0.00 0.00 56 1013.8
20260905213749 32 65 0.0 0.0 0.00 0.00 0.00 51 1013.8
20260905210750 30 117 0.0 0.0 0.00 0.00 0.00 57 1013.9
20260905203743 29 132 0.0 1.6 0.00 0.00 0.00 62 1014.9
20260905200743 29 137 0.0 1.6 0.00 0.00 0.00 61 1015.5
20260905193742 30 190 0.0 0.0 0.00 0.00 0.00 61 1015.8
20260905190737 29 229 0.0 0.0 0.00 0.00 0.00 64 1015.8
20260905183737 27 216 0.0 0.0 0.00 0.00 0.00 68 1016.0
20260905182118 26 109 0.0 1.6 0.00 0.00 0.00 72 1016.2